Regional Weather Roundup
Issued by NWS

Home | Current Version | Previous Version | Text Only | Print | Product List | Glossary On
Versions: 1 2 3 4 5 6 7 8 9 10 11 12 13 14 15 16 17 18 19 20 21 22 23 24 25 26 27 28 29 30 31 32 33 34 35 36 37 38 39 40 41 42 43 44 45 46 47 48 49 50
000
ASUS44 KBMX 221610
RWRAL

ALABAMA REGIONAL WEATHER ROUNDUP
NATIONAL WEATHER SERVICE BIRMINGHAM AL
1100 AM CDT FRI AUG 22 2014

NOTE: "FAIR" INDICATES FEW OR NO CLOUDS BELOW 12,000 FEET
WITH NO SIGNIFICANT WEATHER AND/OR OBSTRUCTIONS TO VISIBILITY.

THE REMARK "TC" DENOTES TEMPERATURE IN DEGREES CELSIUS.

ALZ001>011-014-016>018-020-221700-
NORTH ALABAMA

CITY           SKY/WX    TMP DP  RH WIND       PRES   REMARKS
MUSCLE SHOALS  SUNNY     88  72  58 NW3       30.13F HX  94
HUNTSVILLE     MOSUNNY   90  73  57 W7        30.13F HX  98
DECATUR        SUNNY     88  74  63 SW5       30.13F HX  96
HALEYVILLE     FAIR      87  74  65 SW6       30.17F HX  95
GADSDEN        MOSUNNY   90  72  55 N7        30.13F HX  96
$$

ALZ012-013-022-023-030>036-040>044-221700-
WEST CENTRAL ALABAMA

CITY           SKY/WX    TMP DP  RH WIND       PRES   REMARKS
TUSCALOOSA     SUNNY     90  71  53 NW6       30.13S HX  96
$$

ALZ015-024>027-033>036-040>044-221700-
CENTRAL ALABAMA

CITY           SKY/WX    TMP DP  RH WIND       PRES   REMARKS
BIRMINGHAM     MOSUNNY   88  73  61 NW5       30.16F HX  95
MONTGOMERY     SUNNY     91  73  55 NW9       30.13S HX  99
SHELBY CO ARPT SUNNY     89  72  56 VRB6      30.14F HX  96
MAXWELL AFB    SUNNY     90  75  61 VRB5      30.12F HX  99
GREENVILLE     FAIR      90  75  61 N8        30.14S HX 100
$$

ALZ019-021-028-029-037-038-045>048-221700-
EAST CENTRAL ALABAMA

CITY           SKY/WX    TMP DP  RH WIND       PRES   REMARKS
ANNISTON       MOSUNNY   89  72  56 CALM      30.14F HX  96
ALEXANDER CITY SUNNY     91  70  49 NW6       30.15S HX  96
AUBURN         SUNNY     90  72  55 NW8       30.18S HX  96
$$

ALZ051>064-221700-
SOUTHWEST ALABAMA

CITY           SKY/WX    TMP DP  RH WIND       PRES   REMARKS
MOBILE         MOSUNNY   90  75  61 N10       30.13S HX 100
BROOKLEY FIELD SUNNY     91  75  59 N6        30.13S HX 101
EVERGREEN      SUNNY     91  75  59 NW7       30.14R HX 101
$$

ALZ049-050-065>069-221700-
SOUTHEAST ALABAMA

CITY           SKY/WX    TMP DP  RH WIND       PRES   REMARKS
DOTHAN         SUNNY     91  73  55 NW10      30.15F HX  99
OZARK          MOSUNNY   91  75  58 NW9       30.12S HX 101
TROY           SUNNY     92  74  55 N13       30.13F HX 101
EUFAULA        FAIR      94  74  52 N5        30.11S HX 104
$$


USA.gov is the U.S. government's official web portal to all federal, state and local government web resources and services.